Weather History for Shanghai Hongqiao, SH

Change the Weather History Date:

Friday, August 2, 2013

  Actual Average Record
Temperature  
Mean Temperature 88 °F -  
Max Temperature 95 °F 88 °F 102 °F (2003)
Min Temperature 80 °F 76 °F 77 °F (2014)
Cooling Degree Days 22    
Growing Degree Days 38 (Base 50)    
Moisture  
Dew Point 75 °F    
Average Humidity 68    
Maximum Humidity 84    
Minimum Humidity 52    
Precipitation  
Precipitation 0.00 in 0.18 in - ()
Sea Level Pressure  
Sea Level Pressure 29.77 in    
Wind  
Wind Speed 7 mph ()    
Max Wind Speed 16 mph    
Max Gust Speed -    
Visibility 6.2 miles    
Events Rain    
Averages and records for this station are not official NWS values.
T = Trace of Precipitation, MM = Missing Value Source: Averaged Metar Reports

Daily Weather History Graph

Daily Weather History Graph

Search for Another Location

Airport:

Trip Planner

Search our weather history database for the weather conditions in past years. The results will help you decide how hot, cold, wet, or windy it might be!

Date:

Astronomy

Aug. 02, 2013 Rise Set
Actual Time 5:11 AM CST 6:49 PM CST
Civil Twilight 4:45 AM CST 7:15 PM CST
Nautical Twilight 4:14 AM CST 7:47 PM CST
Astronomical Twilight 3:40 AM CST 8:20 PM CST
Moon 1:08 AM CST (8/2) 3:16 PM CST (8/2)
Length of Visible Light 14h 30m
Length of Day
13h 37m
Waning Crescent, 19% of the Moon is Illuminated
Aug 2
Waning Crescent
Aug 7
New
Aug 14
First Quarter
Aug 21
Full
Aug 28
Last Quarter

Hourly Weather History & Observations

Time (CST) Temp. Heat Index Dew Point Humidity Pressure Visibility Wind Dir Wind Speed Gust Speed Precip Events Conditions
12:00 AM 82.4 °F 88.2 °F 73.4 °F 74% 29.71 in - Variable 2.2 mph - N/A   Clear
12:30 AM 82.4 °F 88.2 °F 73.4 °F 74% 29.71 in - SSE 6.7 mph - N/A   Clear
1:00 AM 82.4 °F 88.2 °F 73.4 °F 74% 29.71 in - South 4.5 mph - N/A   Clear
1:30 AM 82.4 °F 89.5 °F 75.2 °F 79% 29.74 in - South 4.5 mph - N/A   Clear
2:00 AM 82.4 °F 89.5 °F 75.2 °F 79% 29.74 in - SW 6.7 mph - N/A   Clear
2:30 AM 80.6 °F 86.2 °F 75.2 °F 84% 29.74 in - WSW 6.7 mph - N/A   Clear
3:00 AM 80.6 °F 86.2 °F 75.2 °F 84% 29.74 in - SW 4.5 mph - N/A   Clear
3:30 AM 80.6 °F 86.2 °F 75.2 °F 84% 29.74 in - WSW 4.5 mph - N/A   Clear
4:00 AM 80.6 °F 86.2 °F 75.2 °F 84% 29.74 in - SSW 4.5 mph - N/A   Clear
4:30 AM 80.6 °F 86.2 °F 75.2 °F 84% 29.74 in - Calm Calm - N/A   Clear
5:00 AM 80.6 °F 86.2 °F 75.2 °F 84% 29.77 in - Variable 2.2 mph - N/A   Clear
5:30 AM 80.6 °F 86.2 °F 75.2 °F 84% 29.77 in - SSE 2.2 mph - N/A   Clear
6:00 AM 82.4 °F 88.2 °F 73.4 °F 74% 29.77 in - South 4.5 mph - N/A   Clear
6:30 AM 84.2 °F 89.6 °F 71.6 °F 66% 29.77 in - South 6.7 mph - N/A   Clear
7:00 AM 86.0 °F 91.8 °F 71.6 °F 62% 29.80 in - SSW 6.7 mph - N/A   Clear
7:30 AM 84.2 °F 89.6 °F 71.6 °F 66% 29.80 in - South 8.9 mph - N/A   Clear
8:00 AM 86.0 °F 93.4 °F 73.4 °F 66% 29.80 in - South 6.7 mph - N/A   Clear
8:30 AM 89.6 °F 98.2 °F 73.4 °F 59% 29.80 in - South 8.9 mph - N/A   Clear
9:00 AM 89.6 °F 96.2 °F 71.6 °F 55% 29.80 in - South 11.2 mph - N/A   Clear
9:30 AM 91.4 °F 98.4 °F 71.6 °F 52% 29.80 in - South 11.2 mph - N/A   Clear
10:00 AM 91.4 °F 98.4 °F 71.6 °F 52% 29.80 in - South 13.4 mph - N/A   Clear
10:30 AM 91.4 °F 98.4 °F 71.6 °F 52% 29.80 in - South 11.2 mph - N/A   Clear
11:00 AM 89.6 °F 96.2 °F 71.6 °F 55% 29.80 in - South 11.2 mph - N/A   Clear
11:30 AM 89.6 °F 98.2 °F 73.4 °F 59% 29.80 in - South 8.9 mph - N/A   Clear
12:00 PM 91.4 °F 100.1 °F 73.4 °F 55% 29.80 in - SSE 11.2 mph - N/A   Clear
12:30 PM 91.4 °F 100.1 °F 73.4 °F 55% 29.77 in - SSE 11.2 mph - N/A   Clear
1:00 PM 95.0 °F 107.4 °F 75.2 °F 53% 29.77 in - South 11.2 mph - N/A   Clear
1:30 PM 93.2 °F 102.4 °F 73.4 °F 52% 29.77 in - South 11.2 mph - N/A   Clear
2:00 PM 93.2 °F 102.4 °F 73.4 °F 52% 29.77 in - South 13.4 mph - N/A   Clear
2:30 PM 93.2 °F 105.0 °F 75.2 °F 56% 29.77 in 6.2 mi South 13.4 mph - N/A   Scattered Clouds
3:00 PM 91.4 °F 102.5 °F 75.2 °F 59% 29.77 in 6.2 mi SSE 13.4 mph - N/A   Scattered Clouds
3:30 PM 89.6 °F 99.8 °F 75.2 °F 62% 29.77 in 6.2 mi SSE 13.4 mph - N/A   Scattered Clouds
4:00 PM 89.6 °F 99.8 °F 75.2 °F 62% 29.77 in 6.2 mi SE 13.4 mph - N/A   Scattered Clouds
4:30 PM 89.6 °F 99.8 °F 75.2 °F 62% 29.77 in 6.2 mi SSE 13.4 mph - N/A   Scattered Clouds
5:00 PM 89.6 °F 102.2 °F 77.0 °F 66% 29.77 in 6.2 mi SSE 13.4 mph - N/A   Scattered Clouds
5:30 PM 89.6 °F 102.2 °F 77.0 °F 66% 29.77 in 6.2 mi SE 11.2 mph - N/A   Scattered Clouds
6:00 PM 87.8 °F 102.5 °F 78.8 °F 75% 29.77 in 6.2 mi SE 11.2 mph - N/A   Mostly Cloudy
6:30 PM 87.8 °F 99.7 °F 77.0 °F 70% 29.77 in 6.2 mi SE 15.7 mph - N/A   Mostly Cloudy
7:00 PM 87.8 °F 99.7 °F 77.0 °F 70% 29.77 in 6.2 mi SSE 15.7 mph - N/A   Scattered Clouds
7:30 PM 86.0 °F 96.9 °F 77.0 °F 74% 29.77 in 6.2 mi SSE 15.7 mph - N/A Rain Light Rain Showers
8:00 PM 86.0 °F 96.9 °F 77.0 °F 74% 29.80 in 6.2 mi SSE 15.7 mph - N/A Rain Light Rain Showers
8:30 PM 86.0 °F 96.9 °F 77.0 °F 74% 29.80 in - SSE 13.4 mph - N/A   Clear
9:00 PM 86.0 °F 96.9 °F 77.0 °F 74% 29.80 in - SSE 11.2 mph - N/A   Clear
9:30 PM 86.0 °F 96.9 °F 77.0 °F 74% 29.80 in - SE 11.2 mph - N/A   Clear
10:00 PM 86.0 °F 96.9 °F 77.0 °F 74% 29.80 in - SSE 13.4 mph - N/A   Clear
10:30 PM 86.0 °F 96.9 °F 77.0 °F 74% 29.80 in - SE 13.4 mph - N/A   Clear
11:00 PM 86.0 °F 96.9 °F 77.0 °F 74% 29.80 in - SSE 11.2 mph - N/A   Clear
11:30 PM 86.0 °F 96.9 °F 77.0 °F 74% 29.80 in - SSE 13.4 mph - N/A   Clear